Regional Weather Roundup
Issued by NWS

Home | Current Version | Previous Version | Text Only | Print | Product List | Glossary Off
Versions: 1 2 3 4 5 6 7 8 9 10 11 12 13 14 15 16 17 18 19 20 21 22 23 24 25 26 27 28 29 30 31 32 33 34 35 36 37 38 39 40 41 42 43 44 45 46 47 48 49 50

000
ASUS43 KLMK 041210
RWRKY
KENTUCKY REGIONAL WEATHER ROUNDUP
NATIONAL WEATHER SERVICE LOUISVILLE KY
800 AM EDT WED MAY 04 2016

NOTE "FAIR" INDICATES FEW OR NO CLOUDS BELOW 12,000 FEET
WITH NO SIGNIFICANT WEATHER AND/OR OBSTRUCTIONS TO VISIBILITY.

KYZ001>023-026-027-061>063-070>075-041300-
WESTERN AND SOUTH CENTRAL KENTUCKY

CITY           SKY/WX    TMP DP  RH WIND       PRES   REMARKS
PADUCAH        MOSUNNY   52  47  83 SW8       29.79F
HENDERSON      SUNNY     52  43  71 S13       29.76S
OWENSBORO      MOSUNNY   52  47  83 SW9       29.78S
HOPKINSVILLE   SUNNY     50  47  90 SW7       29.82F
BOWLING GREEN  SUNNY     50  46  86 SW7       29.82F
GLASGOW        SUNNY     47  47 100 W3        29.82S
$$

KYZ024-025-028>034-038-045-046-053-041300-
NORTH CENTRAL KENTUCKY

CITY           SKY/WX    TMP DP  RH WIND       PRES   REMARKS
LOUISVILLE/SDF MOSUNNY   55  44  66 SW5       29.76S
LOUISVILLE/LOU SUNNY     53  45  74 SW3       29.77S
FORT KNOX      NOT AVBL
$$

KYZ035>037-039>044-047>052-055>060-089>105-041300-
NORTHEAST KENTUCKY

CITY           SKY/WX    TMP DP  RH WIND       PRES   REMARKS
LEXINGTON      CLOUDY    49  45  86 SW8       29.77F
COVINGTON      PTSUNNY   49  46  90 S7        29.73S
FRANKFORT      CLOUDY    49  44  83 SW7       29.76S
$$

KYZ054-064>069-076>088-106>120-041300-
SOUTHEAST KENTUCKY

CITY           SKY/WX    TMP DP  RH WIND       PRES   REMARKS
JACKSON        CLOUDY    51  47  86 CALM      29.79R
LONDON         SUNNY     50  45  83 SW6       29.81S
SOMERSET       CLOUDY    50  46  87 CALM      29.83S
MIDDLESBORO    CLOUDY    53  47  80 CALM      29.82S
MONTICELLO     SUNNY     50  47  89 VRB7      29.84S
$$




USA.gov is the U.S. government's official web portal to all federal, state and local government web resources and services.